{"data":{"norad_id":59403,"intl_designator":"2024-064F","name":"STARLINK-31366","alt_names":[],"object_type":"PAYLOAD","status":"ACTIVE","operator":null,"country":"US","launch_date":"2024-04-05","launch_site_code":"AFETR","launch_vehicle":null,"mission":null,"orbit_class":"UNKNOWN","rcs_meters":null,"size_class":null,"mass_kg":null,"dimensions":null,"purposes":["comms"],"wikipedia_slug":null,"has_3d_model":false,"image_url":null,"decayed_at":null,"tle_current":{"epoch":"2026-09-21T15:21:51.914880Z","epoch_age_seconds":66575,"freshness":"FRESH","line1":"1 59403U 24064F   26264.64018420  .00012264  00000+0  45488-3 0  9998","line2":"2 59403  43.0032  29.5654 0000788 300.7624  59.3150 15.27547703139198","mean_motion":15.27547703,"eccentricity":7.88e-5,"inclination_deg":43.0032,"raan_deg":29.5654,"arg_perigee_deg":300.7624,"mean_anomaly_deg":59.315,"bstar":0.00045488,"rev_number":13919,"period_min":94.268741799155,"perigee_km":482.60513749521,"apogee_km":483.68647566552,"semimajor_km":6861.2828065804,"source":"CELESTRAK","updated_at":"2026-09-22T09:00:48.913953Z"}}}